FIN8HR EDDH-EFHK

Flight info

Callsign FIN8HR
Flight time 1h 31m
Altitude 37000
Route LUGEG3G/33 LUGEG P605 MOSAT DCT TIDVU DCT KAL DCT NEREN DCT ALAMI DCT OKEVU DCT EVADI Y370 DIVAM
Aircraft A321/M-SDE3FGHIRWY/LB1

Departure

Time 2026-04-24 15:09
Airport Hamburg Helmut Schmidt Airport (EDDH)

Arrival

Time 2026-04-24 16:40
Airport Helsinki Vantaa Airport (EFHK)
Time Latitude Longitude Altitude Speed Heading
2026-04-24 14:25 53.63331 10.00347 49 ft 0 kts 86°
2026-04-24 15:01 53.63330 10.00343 48 ft 3 kts 86°
2026-04-24 15:01 53.63329 10.00298 45 ft 4 kts 86°
2026-04-24 15:01 53.63327 10.00253 43 ft 4 kts 86°
2026-04-24 15:02 53.63326 10.00217 44 ft 4 kts 98°
2026-04-24 15:02 53.63335 10.00178 47 ft 4 kts 139°
2026-04-24 15:02 53.63353 10.00162 47 ft 1 kts 176°
2026-04-24 15:05 53.63349 10.00163 47 ft 2 kts 176°
2026-04-24 15:05 53.63317 10.00167 47 ft 7 kts 176°
2026-04-24 15:06 53.63255 10.00165 48 ft 11 kts 199°
2026-04-24 15:06 53.63195 10.00065 48 ft 14 kts 230°
2026-04-24 15:06 53.63127 9.99925 48 ft 17 kts 230°
2026-04-24 15:06 53.63026 9.99931 48 ft 17 kts 153°
2026-04-24 15:07 53.62924 9.99980 45 ft 14 kts 212°
2026-04-24 15:07 53.62872 9.99828 45 ft 17 kts 245°
2026-04-24 15:07 53.62929 9.99690 45 ft 12 kts 334°
2026-04-24 15:07 53.62938 9.99684 45 ft 0 kts 334°
2026-04-24 15:08 53.62949 9.99674 45 ft 11 kts 334°
2026-04-24 15:08 53.63269 9.99396 47 ft 90 kts 333°
2026-04-24 15:08 53.64022 9.98741 54 ft 150 kts 335°
2026-04-24 15:09 53.64986 9.97915 603 ft 157 kts 328°
2026-04-24 15:09 53.65950 9.97086 1435 ft 159 kts 328°
2026-04-24 15:09 53.66997 9.96165 1796 ft 179 kts 328°
2026-04-24 15:09 53.68158 9.95141 2191 ft 199 kts 330°
2026-04-24 15:10 53.69509 9.94559 2980 ft 205 kts 357°
2026-04-24 15:10 53.70933 9.94602 3794 ft 206 kts 358°
2026-04-24 15:10 53.72375 9.94701 4612 ft 210 kts
2026-04-24 15:10 53.73704 9.95801 4928 ft 227 kts 40°
2026-04-24 15:11 53.74624 9.98242 5001 ft 261 kts 59°
2026-04-24 15:11 53.75433 10.01075 5352 ft 272 kts 60°
2026-04-24 15:11 53.76235 10.03945 6294 ft 270 kts 59°
2026-04-24 15:11 53.77042 10.06826 7118 ft 272 kts 59°
2026-04-24 15:12 53.77861 10.09723 7866 ft 275 kts 58°
2026-04-24 15:12 53.79542 10.15599 9321 ft 284 kts 58°
2026-04-24 15:12 53.80410 10.18622 10049 ft 288 kts 58°
2026-04-24 15:13 53.81303 10.21722 10519 ft 303 kts 58°
2026-04-24 15:13 53.82264 10.25046 10693 ft 326 kts 59°
2026-04-24 15:13 53.83291 10.28607 10997 ft 343 kts 59°
2026-04-24 15:13 53.84339 10.32279 11585 ft 349 kts 60°
2026-04-24 15:14 53.85395 10.36006 12269 ft 354 kts 60°
2026-04-24 15:14 53.86463 10.39794 12935 ft 358 kts 60°
2026-04-24 15:14 53.87543 10.43630 13611 ft 362 kts 60°
2026-04-24 15:14 53.88618 10.47446 14233 ft 366 kts 60°
2026-04-24 15:15 53.89724 10.51362 14830 ft 370 kts 60°
2026-04-24 15:15 53.90843 10.55311 15456 ft 374 kts 60°
2026-04-24 15:15 53.91970 10.59301 16071 ft 377 kts 61°
2026-04-24 15:15 53.93113 10.63343 16668 ft 381 kts 60°
2026-04-24 15:16 53.94465 10.67211 17269 ft 382 kts 50°
2026-04-24 15:16 53.96187 10.70632 17853 ft 383 kts 43°
2026-04-24 15:16 53.98023 10.73939 18420 ft 387 kts 43°
2026-04-24 15:16 53.99875 10.77286 18930 ft 391 kts 43°
2026-04-24 15:17 54.01743 10.80679 19445 ft 395 kts 43°
2026-04-24 15:17 54.03625 10.84106 19969 ft 399 kts 43°
2026-04-24 15:17 54.05498 10.87532 20471 ft 402 kts 43°
2026-04-24 15:17 54.07415 10.91044 20990 ft 406 kts 43°
2026-04-24 15:18 54.09345 10.94586 21474 ft 411 kts 43°
2026-04-24 15:18 54.11294 10.98168 21981 ft 414 kts 43°
2026-04-24 15:18 54.13263 11.01795 22472 ft 418 kts 43°
2026-04-24 15:18 54.15248 11.05461 22945 ft 422 kts 43°
2026-04-24 15:19 54.17246 11.09163 23392 ft 426 kts 43°
2026-04-24 15:19 54.19260 11.12908 23826 ft 430 kts 43°
2026-04-24 15:19 54.21286 11.16686 24217 ft 433 kts 43°
2026-04-24 15:19 54.23325 11.20499 24635 ft 436 kts 42°
2026-04-24 15:20 54.25370 11.24335 25079 ft 437 kts 42°
2026-04-24 15:20 54.27425 11.28194 25485 ft 439 kts 42°
2026-04-24 15:20 54.29456 11.32009 25869 ft 442 kts 42°
2026-04-24 15:20 54.31563 11.35970 26264 ft 445 kts 42°
2026-04-24 15:21 54.33623 11.39847 26617 ft 447 kts 42°
2026-04-24 15:21 54.35720 11.43808 26978 ft 450 kts 42°
2026-04-24 15:21 54.37827 11.47794 27345 ft 453 kts 42°
2026-04-24 15:21 54.39952 11.51808 27713 ft 455 kts 42°
2026-04-24 15:22 54.42089 11.55839 28065 ft 458 kts 42°
2026-04-24 15:22 54.44239 11.59901 28427 ft 461 kts 42°
2026-04-24 15:22 54.46396 11.63986 28780 ft 464 kts 42°
2026-04-24 15:23 54.50756 11.72255 29419 ft 469 kts 42°
2026-04-24 15:23 54.55128 11.80578 30091 ft 474 kts 42°
2026-04-24 15:23 54.57346 11.84805 30375 ft 477 kts 42°
2026-04-24 15:24 54.64019 11.97630 31471 ft 478 kts 43°
2026-04-24 15:25 54.67646 12.04811 32192 ft 476 kts 43°
2026-04-24 15:25 54.72659 12.14860 33148 ft 474 kts 43°
2026-04-24 15:26 54.79114 12.27763 34269 ft 471 kts 43°
2026-04-24 15:27 54.85538 12.40635 35208 ft 470 kts 43°
2026-04-24 15:27 54.91929 12.53511 36207 ft 468 kts 43°
2026-04-24 15:28 55.00353 12.70614 37042 ft 465 kts 43°
2026-04-24 15:29 55.04499 12.79257 37034 ft 465 kts 44°
2026-04-24 15:31 55.19008 13.09339 37029 ft 463 kts 43°
2026-04-24 15:33 55.35978 13.43177 37031 ft 458 kts 37°
2026-04-24 15:34 55.47379 13.62611 37027 ft 458 kts 38°
2026-04-24 15:35 55.58656 13.82417 36994 ft 456 kts 38°
2026-04-24 15:36 55.63163 13.90345 36991 ft 457 kts 38°
2026-04-24 15:36 55.69888 14.02221 36995 ft 458 kts 38°
2026-04-24 15:37 55.74386 14.10225 36969 ft 458 kts 38°
2026-04-24 15:37 55.78883 14.18236 36986 ft 458 kts 38°
2026-04-24 15:38 55.83432 14.26343 36952 ft 468 kts 38°
2026-04-24 15:38 55.88016 14.34555 36950 ft 472 kts 38°
2026-04-24 15:39 55.92635 14.42890 36952 ft 473 kts 38°
2026-04-24 15:39 55.97253 14.51255 36954 ft 473 kts 39°
2026-04-24 15:40 56.01873 14.59647 36968 ft 474 kts 39°
2026-04-24 15:40 56.06476 14.68013 36972 ft 475 kts 39°
2026-04-24 15:41 56.11106 14.76468 36979 ft 476 kts 39°
2026-04-24 15:41 56.15738 14.84966 36980 ft 476 kts 39°
2026-04-24 15:42 56.20368 14.93490 36981 ft 477 kts 39°
2026-04-24 15:42 56.25003 15.02047 36994 ft 478 kts 39°
2026-04-24 15:43 56.29605 15.10586 37021 ft 479 kts 39°
2026-04-24 15:43 56.34243 15.19220 37000 ft 480 kts 39°
2026-04-24 15:44 56.38882 15.27877 36996 ft 480 kts 39°
2026-04-24 15:44 56.43518 15.36569 37016 ft 481 kts 40°
2026-04-24 15:45 56.48152 15.45298 36967 ft 481 kts 40°
2026-04-24 15:45 56.52779 15.54055 36965 ft 482 kts 40°
2026-04-24 15:46 56.57412 15.62829 36968 ft 482 kts 40°
2026-04-24 15:46 56.62013 15.71578 36963 ft 483 kts 40°
2026-04-24 15:47 56.66643 15.80425 36967 ft 483 kts 41°
2026-04-24 15:47 56.71255 15.89267 36949 ft 482 kts 41°
2026-04-24 15:48 56.75872 15.98146 36992 ft 483 kts 40°
2026-04-24 15:48 56.80489 16.07074 36986 ft 485 kts 40°
2026-04-24 15:49 56.85110 16.16054 36990 ft 486 kts 41°
2026-04-24 15:49 56.89702 16.25002 37006 ft 486 kts 41°
2026-04-24 15:50 56.94325 16.34043 36988 ft 486 kts 41°
2026-04-24 15:50 56.98942 16.43095 36984 ft 486 kts 41°
2026-04-24 15:51 57.03550 16.52176 36993 ft 486 kts 41°
2026-04-24 15:51 57.08121 16.61209 36984 ft 486 kts 41°
2026-04-24 15:52 57.12710 16.70319 36961 ft 483 kts 42°
2026-04-24 15:52 57.17269 16.79409 36972 ft 483 kts 42°
2026-04-24 15:53 57.21835 16.88510 36976 ft 483 kts 42°
2026-04-24 15:53 57.26360 16.97589 36979 ft 484 kts 42°
2026-04-24 15:54 57.30901 17.06777 36979 ft 484 kts 43°
2026-04-24 15:54 57.35423 17.15961 36949 ft 480 kts 43°
2026-04-24 15:55 57.39913 17.25098 36954 ft 476 kts 43°
2026-04-24 15:55 57.44331 17.34121 36935 ft 476 kts 43°
2026-04-24 15:56 57.48800 17.43257 36933 ft 478 kts 43°
2026-04-24 15:56 57.53271 17.52444 36939 ft 480 kts 43°
2026-04-24 15:57 57.57743 17.61696 36953 ft 481 kts 44°
2026-04-24 15:57 57.62220 17.70984 36955 ft 482 kts 44°
2026-04-24 15:58 57.65942 17.78726 36958 ft 482 kts 44°
2026-04-24 15:58 57.70414 17.88070 36963 ft 483 kts 44°
2026-04-24 15:59 57.75609 17.98961 37002 ft 483 kts 44°
2026-04-24 15:59 57.80040 18.08296 36956 ft 479 kts 44°
2026-04-24 16:00 57.83716 18.16058 36960 ft 479 kts 44°
2026-04-24 16:00 57.88858 18.26977 36966 ft 480 kts 44°
2026-04-24 16:01 57.92552 18.34886 36968 ft 481 kts 45°
2026-04-24 16:01 57.96940 18.44285 36965 ft 481 kts 45°
2026-04-24 16:02 58.01343 18.53728 36959 ft 478 kts 45°
2026-04-24 16:02 58.05729 18.63176 36956 ft 479 kts 45°
2026-04-24 16:03 58.10114 18.72656 36965 ft 479 kts 45°
2026-04-24 16:03 58.14493 18.82169 36959 ft 479 kts 45°
2026-04-24 16:04 58.18858 18.91717 36967 ft 480 kts 45°
2026-04-24 16:04 58.23181 19.01202 36932 ft 477 kts 45°
2026-04-24 16:05 58.29691 19.15552 36939 ft 479 kts 46°
2026-04-24 16:06 58.36203 19.29981 36949 ft 479 kts 46°
2026-04-24 16:07 58.42709 19.44487 36968 ft 480 kts 46°
2026-04-24 16:07 58.49164 19.59005 36960 ft 480 kts 46°
2026-04-24 16:08 58.55642 19.73635 36950 ft 480 kts 46°
2026-04-24 16:09 58.62111 19.88313 36954 ft 480 kts 46°
2026-04-24 16:09 58.66382 19.98085 36929 ft 476 kts 47°
2026-04-24 16:11 58.76979 20.22484 36935 ft 477 kts 47°
2026-04-24 16:11 58.81228 20.32323 36929 ft 477 kts 47°
2026-04-24 16:12 58.87521 20.47198 36917 ft 476 kts 49°
2026-04-24 16:13 58.93481 20.62479 36917 ft 477 kts 50°
2026-04-24 16:14 59.01458 20.83028 36722 ft 478 kts 50°
2026-04-24 16:14 59.03453 20.88147 36390 ft 473 kts 50°
2026-04-24 16:14 59.07092 20.98856 35906 ft 476 kts 56°
2026-04-24 16:15 59.08237 21.02492 35733 ft 476 kts 56°
2026-04-24 16:15 59.12256 21.15286 35183 ft 477 kts 56°
2026-04-24 16:16 59.15708 21.26328 34682 ft 478 kts 56°
2026-04-24 16:16 59.17436 21.31867 34445 ft 478 kts 57°
2026-04-24 16:17 59.22596 21.48526 33702 ft 479 kts 57°
2026-04-24 16:17 59.26008 21.59602 33179 ft 479 kts 57°
2026-04-24 16:18 59.29430 21.70764 32631 ft 479 kts 57°
2026-04-24 16:18 59.32850 21.81985 32105 ft 481 kts 57°
2026-04-24 16:18 59.34561 21.87626 31845 ft 482 kts 57°
2026-04-24 16:19 59.37988 21.98950 31240 ft 484 kts 57°
2026-04-24 16:19 59.39708 22.04647 30652 ft 485 kts 57°
2026-04-24 16:20 59.43124 22.15988 29467 ft 488 kts 57°
2026-04-24 16:20 59.46577 22.27502 28316 ft 490 kts 56°
2026-04-24 16:20 59.48298 22.33276 27740 ft 490 kts 56°
2026-04-24 16:21 59.51750 22.44888 26596 ft 492 kts 56°
2026-04-24 16:21 59.53446 22.50623 26030 ft 490 kts 56°
2026-04-24 16:21 59.55150 22.56402 25488 ft 486 kts 56°
2026-04-24 16:22 59.56837 22.62142 24953 ft 482 kts 56°
2026-04-24 16:22 59.60159 22.73503 23901 ft 474 kts 55°
2026-04-24 16:22 59.61798 22.79123 23399 ft 470 kts 54°
2026-04-24 16:23 59.63426 22.84701 22826 ft 467 kts 54°
2026-04-24 16:23 59.65039 22.90244 22340 ft 464 kts 54°
2026-04-24 16:23 59.66636 22.95762 21832 ft 460 kts 55°
2026-04-24 16:24 59.69762 23.06601 20775 ft 454 kts 54°
2026-04-24 16:24 59.71303 23.11948 20264 ft 432 kts 54°
2026-04-24 16:24 59.72730 23.16947 19707 ft 405 kts 54°
2026-04-24 16:24 59.74087 23.21710 18934 ft 389 kts 54°
2026-04-24 16:25 59.75395 23.26293 18752 ft 375 kts 53°
2026-04-24 16:25 59.76668 23.30732 18330 ft 366 kts 53°
2026-04-24 16:25 59.77907 23.35048 17853 ft 354 kts 53°
2026-04-24 16:26 59.80310 23.43427 16962 ft 345 kts 53°
2026-04-24 16:26 59.81475 23.47501 16540 ft 342 kts 53°
2026-04-24 16:26 59.83794 23.55689 15659 ft 338 kts 53°
2026-04-24 16:27 59.84939 23.59742 15235 ft 335 kts 53°
2026-04-24 16:27 59.86074 23.63767 14798 ft 333 kts 53°
2026-04-24 16:27 59.87203 23.67768 14380 ft 330 kts 52°
2026-04-24 16:27 59.88362 23.71633 13556 ft 323 kts 50°
2026-04-24 16:28 59.89593 23.75467 12124 ft 332 kts 50°
2026-04-24 16:28 59.90824 23.79209 11636 ft 311 kts 50°
2026-04-24 16:28 59.93074 23.86101 11256 ft 295 kts 50°
2026-04-24 16:29 59.94155 23.89458 11018 ft 288 kts 50°
2026-04-24 16:29 59.95229 23.92824 10593 ft 289 kts 51°
2026-04-24 16:29 59.97331 23.99450 10121 ft 278 kts 51°
2026-04-24 16:30 59.99389 24.05973 9836 ft 277 kts 51°
2026-04-24 16:30 60.00411 24.09230 9562 ft 279 kts 51°
2026-04-24 16:30 60.01436 24.12495 9034 ft 273 kts 52°
2026-04-24 16:31 60.02444 24.15708 8562 ft 272 kts 52°
2026-04-24 16:31 60.03418 24.18824 8262 ft 254 kts 52°
2026-04-24 16:31 60.04324 24.21751 7807 ft 244 kts 52°
2026-04-24 16:31 60.05201 24.24569 7334 ft 241 kts 52°
2026-04-24 16:32 60.06086 24.27410 6941 ft 240 kts 53°
2026-04-24 16:32 60.06968 24.30233 6525 ft 239 kts 53°
2026-04-24 16:32 60.07849 24.33049 6139 ft 236 kts 53°
2026-04-24 16:32 60.08688 24.35753 5922 ft 221 kts 53°
2026-04-24 16:33 60.09483 24.38320 5576 ft 215 kts 53°
2026-04-24 16:33 60.10264 24.40841 5144 ft 212 kts 53°
2026-04-24 16:33 60.11040 24.43351 4787 ft 210 kts 53°
2026-04-24 16:33 60.11814 24.45850 4512 ft 211 kts 53°
2026-04-24 16:34 60.12587 24.48342 4198 ft 210 kts 53°
2026-04-24 16:34 60.13358 24.50826 3849 ft 210 kts 53°
2026-04-24 16:34 60.14195 24.53124 3668 ft 204 kts 43°
2026-04-24 16:34 60.15170 24.55208 3627 ft 205 kts 43°
2026-04-24 16:35 60.16142 24.57326 3563 ft 206 kts 43°
2026-04-24 16:35 60.17111 24.59455 3482 ft 206 kts 43°
2026-04-24 16:35 60.18079 24.61563 3391 ft 204 kts 43°
2026-04-24 16:35 60.19048 24.63664 3330 ft 205 kts 43°
2026-04-24 16:36 60.20019 24.65771 3215 ft 206 kts 43°
2026-04-24 16:36 60.20967 24.67835 3115 ft 194 kts 42°
2026-04-24 16:36 60.21857 24.69772 2934 ft 187 kts 41°
2026-04-24 16:36 60.22719 24.71644 2679 ft 183 kts 42°
2026-04-24 16:37 60.23567 24.73493 2434 ft 173 kts 42°
2026-04-24 16:37 60.24358 24.75218 2215 ft 165 kts 41°
2026-04-24 16:37 60.25102 24.76845 1984 ft 150 kts 41°
2026-04-24 16:37 60.25787 24.78339 1779 ft 141 kts 41°
2026-04-24 16:38 60.26445 24.79775 1598 ft 138 kts 41°
2026-04-24 16:38 60.27088 24.81207 1424 ft 137 kts 41°
2026-04-24 16:38 60.27734 24.82609 1213 ft 136 kts 39°
2026-04-24 16:38 60.28381 24.84023 1029 ft 138 kts 40°
2026-04-24 16:39 60.29021 24.85419 837 ft 137 kts 42°
2026-04-24 16:39 60.29670 24.86832 656 ft 139 kts 43°
2026-04-24 16:39 60.30328 24.88289 466 ft 141 kts 42°
2026-04-24 16:39 60.30992 24.89734 271 ft 139 kts 41°
2026-04-24 16:40 60.31640 24.91158 152 ft 130 kts 42°
2026-04-24 16:40 60.32161 24.92289 163 ft 87 kts 48°
2026-04-24 16:40 60.32456 24.92936 174 ft 42 kts 47°
2026-04-24 16:40 60.32634 24.93328 181 ft 36 kts 47°
2026-04-24 16:41 60.32800 24.93687 181 ft 35 kts 48°
2026-04-24 16:41 60.32962 24.94044 191 ft 34 kts 47°
2026-04-24 16:41 60.33044 24.94427 188 ft 30 kts 89°
2026-04-24 16:41 60.33021 24.94676 181 ft 16 kts 134°
2026-04-24 16:42 60.33005 24.94706 180 ft 0 kts 137°
2026-04-24 16:42 60.32992 24.94730 179 ft 7 kts 137°
2026-04-24 16:43 60.32934 24.94841 177 ft 16 kts 137°
2026-04-24 16:43 60.32813 24.94967 176 ft 21 kts 162°
2026-04-24 16:43 60.32674 24.95057 180 ft 21 kts 162°
2026-04-24 16:43 60.32532 24.95150 180 ft 22 kts 162°
2026-04-24 16:44 60.32373 24.95251 178 ft 25 kts 162°
2026-04-24 16:44 60.32228 24.95472 175 ft 28 kts 137°
2026-04-24 16:44 60.32080 24.95747 174 ft 29 kts 137°
2026-04-24 16:44 60.31963 24.95961 172 ft 18 kts 138°
2026-04-24 16:45 60.31926 24.96027 172 ft 0 kts 138°
2026-04-24 16:45 60.31924 24.96031 172 ft 2 kts 138°
2026-04-24 16:45 60.31920 24.96118 170 ft 11 kts 60°
2026-04-24 16:45 60.31922 24.96233 167 ft 10 kts 132°
2026-04-24 16:46 60.31898 24.96279 166 ft 0 kts 138°